FW6376 Weather Reports


Display with metric or nautical units.
time (UTC)temp
F
wind
direction
speed
MPH
gust
MPH
rain 1hr
in
rain 24hr
in
rain mn
in
humidity
%
barometer
mb
20260504174555 64 198 0.0 17.0 0.00 0.00 0.00 33 1007.2
20260504173046 62 350 4.0 12.0 0.00 0.00 0.00 32 1007.6
20260504171546 61 321 3.0 10.0 0.00 0.00 0.00 35 1007.7
20260504081513 35 275 0.0 0.0 0.00 0.00 0.00 70 1010.2
20260504060111 33 275 0.0 1.0 0.00 0.00 0.00 68 1010.4
20260504044541 30 275 0.0 0.0 0.00 0.00 0.00 70 1010.5
20260504043037 30 275 0.0 0.0 0.00 0.00 0.00 69 1010.7
20260504041536 30 275 0.0 1.0 0.00 0.00 0.00 68 1010.7
20260504040034 30 275 0.0 1.0 0.00 0.00 0.00 68 1010.7
20260504034533 30 275 0.0 0.0 0.00 0.00 0.00 67 1010.6
20260504033037 30 275 0.0 1.0 0.00 0.00 0.00 67 1010.4
20260504031531 30 275 0.0 1.0 0.00 0.00 0.00 66 1010.5
20260504030028 31 275 0.0 1.0 0.00 0.00 0.00 66 1010.5
20260504024526 31 275 0.0 0.0 0.00 0.00 0.00 66 1010.4
20260504023024 32 275 0.0 1.0 0.00 0.00 0.00 66 1010.5
20260504021522 33 275 0.0 1.0 0.00 0.00 0.00 66 1010.5
20260504020020 33 275 0.0 1.0 0.00 0.00 0.00 66 1010.4
20260504014535 34 275 0.0 0.0 0.00 0.00 0.00 64 1010.3
20260504013015 35 275 0.0 0.0 0.00 0.00 0.00 64 1010.3
20260504011512 36 275 0.0 0.0 0.00 0.00 0.00 63 1010.0
20260504010011 37 275 0.0 0.0 0.00 0.01 0.00 60 1009.9
20260504004511 38 275 0.0 0.0 0.00 0.01 0.00 59 1009.8
20260504003011 40 275 0.0 0.0 0.00 0.01 0.00 58 1009.6
20260504001510 41 275 0.0 0.0 0.00 0.01 0.00 55 1009.6
20260504000022 43 275 0.0 0.0 0.00 0.01 0.00 54 1009.6
20260503234509 45 275 0.0 0.0 0.00 0.01 0.00 51 1009.4
20260503233009 47 275 0.0 5.0 0.00 0.01 0.00 42 1009.1
20260503231508 47 149 0.0 3.0 0.00 0.01 0.00 40 1009.0
20260503230008 48 50 0.0 4.0 0.00 0.01 0.00 37 1009.0
20260503224507 48 274 0.0 4.0 0.00 0.01 0.00 37 1009.0
20260503223006 49 268 0.0 4.0 0.00 0.01 0.00 36 1009.0
20260503221506 48 331 0.0 3.0 0.00 0.01 0.00 38 1009.0
20260503220006 49 331 1.0 5.0 0.00 0.01 0.00 35 1008.9
20260503214515 49 315 0.0 5.0 0.00 0.01 0.00 37 1008.8
20260503213004 49 264 2.0 6.0 0.00 0.01 0.00 36 1008.9
20260503211503 49 339 0.0 7.0 0.00 0.01 0.00 34 1008.9
20260503210009 49 338 0.0 11.0 0.00 0.01 0.00 35 1008.9
20260503204509 49 141 2.0 12.0 0.00 0.01 0.00 35 1008.9
20260503203001 51 257 3.0 11.0 0.00 0.01 0.00 33 1008.6
20260503201600 49 49 0.0 12.0 0.00 0.01 0.00 32 1008.6
20260503200059 50 155 3.0 10.0 0.00 0.01 0.00 31 1008.6
20260503194620 50 34 1.0 12.0 0.00 0.01 0.00 32 1008.6
20260503193058 50 80 1.0 11.0 0.00 0.01 0.00 30 1008.7
20260503191602 49 263 1.0 12.0 0.00 0.01 0.00 31 1008.7
20260503184557 50 315 2.0 8.0 0.00 0.04 0.00 30 1008.4
20260503183104 49 291 3.0 7.0 0.00 0.04 0.00 31 1008.7
20260503181552 49 355 2.0 10.0 0.00 0.04 0.00 32 1008.7
20260503180104 49 310 2.0 12.0 0.00 0.04 0.00 31 1008.6